Location: Escondido Hill
(38.9119°N, 104.7815°W)
Time: 01:45:45
(UTC-06:00)

OTV 5 (USA 277) - Pass Details

Date: 27 April 2019
Orbit: 310 x 325 km, 54.5° (Epoch: 08 May)

Event Time Altitude Azimuth Distance (km) Brightness Sun altitude
Rises 20:18:23 0° 256° (WSW) 2,025 ? -6.4°
Reaches altitude 10° 20:20:39 10° 275° (W) 1,198 ? -6.8°
Maximum altitude 20:22:42 19° 326° (NW) 811 ? -7.1°
Drops below altitude 10° 20:24:44 10° 16° (NNE) 1,200 ? -7.5°
Sets 20:27:01 0° 35° (NE) 2,030 ? -7.9°
